Aérodrome :
LOGIN :

S'inscrire | Disclaimer

   EN    FR    IT 

 










Légende :    VFR   VFR Marginal   IFR   IFR Intensif   IFR Très Intensif
Visi : 
Plafond : 
>= 8 km
>= 3000ft
5 à 8 km
1000 à 3000 ft
1500m à 5 km
500 à 1000 ft
800 à 1500m
200 à 500 ft
< 800m
< 200 ft
Symboles :   Orages  Brouillard  Fortes neiges  Fortes précipitations  Vent > 20 kt
SIGMETs :   Divers  Orages  Givrage  Turbulence  Onde Orograph.  Cendres Volcan.







- Altitude de l'aérodrome : 628 ft
- Code IATA : PNL


LICG - Pantelleria

DERNIER METAR :
  • 181655Z /////KT 9999 FEW010 13/10 Q1015

METARs EXPIRÉS :
  • 181555Z /////KT 9999 FEW010 SCT020 13/10 Q1015
  • 181455Z /////KT 9999 FEW010 SCT020 13/10 Q1015 RMK SCT VIS MIN 9999 WIND THR08 24007KT WIND THR21 33005KT BLU

TAF TAF LICG
Valide du 18 à 18h jusqu'au 19 à 03h UTC


181700Z 1818/1903 30007KT 9999 SCT015
TEMPO 1901/1903 TSRA FEW015CB
Pas de NOTAMs connus pour ce terrain.



MET'MAP, la Météo Aéronautique d'un coup d'oeil ! - Copyright ORBIFLY Décembre 2007 - Disclaimer

ORBIFLY MET'MAP TEAM :

Programmation & Développement : Alexandra Zaïnal
Conception & Développement : Baudouin d'Aumeries
Co-Programmation & Développement : Marc-Olivier Méhu
Soutien technique & logistique : Manuel Goepfert

Contact : metmap@orbifly.com




SOURCES & CREDITS :

   NOAA